Time,TemperatureF,DewpointF,PressureIn,WindDirection,WindDirectionDegrees,WindSpeedMPH,WindSpeedGustMPH,Humidity,HourlyPrecipIn,Conditions,Clouds,dailyrainin,SolarRadiationWatts/m^2,SoftwareType,DateUTC
2013-09-25 00:00:00,48.2,44.8,29.92,SW,225,0.0,0.0,88,0.00,,,0.00,0.00,VWS V14.01,2013-09-25 04:00:00,
2013-09-25 00:10:00,48.0,44.6,29.92,SW,225,0.0,0.0,88,0.00,,,0.00,0.00,VWS V14.01,2013-09-25 04:10:00,
2013-09-25 00:20:00,47.7,44.3,29.92,SW,225,0.0,0.0,88,0.00,,,0.00,0.00,VWS V14.01,2013-09-25 04:20:00,
2013-09-25 00:30:00,47.6,44.5,29.92,SW,225,0.0,0.0,89,0.00,,,0.00,0.00,VWS V14.01,2013-09-25 04:30:00,
2013-09-25 00:40:00,47.5,44.4,29.92,SW,225,0.0,0.0,89,0.00,,,0.00,0.00,VWS V14.01,2013-09-25 04:40:00,
2013-09-25 00:50:00,47.4,44.3,29.93,SW,225,0.0,0.0,89,0.00,,,0.00,0.00,VWS V14.01,2013-09-25 04:50:00,
2013-09-25 01:00:00,47.3,44.2,29.93,SW,225,0.0,0.0,89,0.00,,,0.00,0.00,VWS V14.01,2013-09-25 05:00:00,
2013-09-25 01:10:00,47.1,44.0,29.93,SW,225,0.0,0.0,89,0.00,,,0.00,0.00,VWS V14.01,2013-09-25 05:10:00,
2013-09-25 01:20:00,47.0,44.2,29.92,SW,225,0.0,0.0,90,0.00,,,0.00,0.00,VWS V14.01,2013-09-25 05:20:00,
2013-09-25 01:30:00,46.8,44.0,29.92,SW,225,0.0,0.0,90,0.00,,,0.00,0.00,VWS V14.01,2013-09-25 05:30:00,
2013-09-25 01:40:00,46.6,43.8,29.92,SW,225,0.0,0.0,90,0.00,,,0.00,0.00,VWS V14.01,2013-09-25 05:40:00,
2013-09-25 01:50:00,46.4,43.6,29.92,SW,225,0.0,0.0,90,0.00,,,0.00,0.00,VWS V14.01,2013-09-25 05:50:00,
2013-09-25 02:00:00,46.2,43.4,29.92,SW,225,0.0,0.0,90,0.00,,,0.00,0.00,VWS V14.01,2013-09-25 06:00:00,
2013-09-25 02:10:00,46.1,43.3,29.92,SW,225,0.0,0.0,90,0.00,,,0.00,0.00,VWS V14.01,2013-09-25 06:10:00,
2013-09-25 02:20:00,46.0,43.2,29.91,SW,225,0.0,0.0,90,0.00,,,0.00,0.00,VWS V14.01,2013-09-25 06:20:00,
2013-09-25 02:30:00,45.8,43.0,29.91,SW,225,0.0,0.0,90,0.00,,,0.00,0.00,VWS V14.01,2013-09-25 06:30:00,
2013-09-25 02:40:00,46.0,43.5,29.91,SW,225,0.0,0.0,91,0.00,,,0.00,0.00,VWS V14.01,2013-09-25 06:40:00,
2013-09-25 02:50:00,46.1,43.6,29.90,SW,225,0.0,0.0,91,0.00,,,0.00,0.00,VWS V14.01,2013-09-25 06:50:00,
2013-09-25 03:00:00,45.9,43.4,29.90,SW,225,0.0,0.0,91,0.00,,,0.00,0.00,VWS V14.01,2013-09-25 07:00:00,
2013-09-25 03:10:00,45.7,43.2,29.90,SW,225,0.0,0.0,91,0.00,,,0.00,0.00,VWS V14.01,2013-09-25 07:10:00,
2013-09-25 03:20:00,45.4,42.9,29.89,SW,225,0.0,0.0,91,0.00,,,0.00,0.00,VWS V14.01,2013-09-25 07:20:00,
2013-09-25 03:30:00,45.3,42.8,29.89,SW,225,0.0,0.0,91,0.00,,,0.00,0.00,VWS V14.01,2013-09-25 07:30:00,
2013-09-25 03:40:00,45.1,42.6,29.89,SW,225,0.0,0.0,91,0.00,,,0.00,0.00,VWS V14.01,2013-09-25 07:40:00,
2013-09-25 03:50:00,44.9,42.4,29.89,SW,225,0.0,0.0,91,0.00,,,0.00,0.00,VWS V14.01,2013-09-25 07:50:00,
2013-09-25 04:00:00,44.6,42.1,29.89,SW,225,0.0,0.0,91,0.00,,,0.00,0.00,VWS V14.01,2013-09-25 08:00:00,
2013-09-25 04:10:00,44.6,42.1,29.89,SW,225,0.0,0.0,91,0.00,,,0.00,0.00,VWS V14.01,2013-09-25 08:10:00,
2013-09-25 04:20:00,44.4,41.9,29.89,SW,225,0.0,0.0,91,0.00,,,0.00,0.00,VWS V14.01,2013-09-25 08:20:00,
2013-09-25 04:30:00,44.2,41.7,29.89,SW,225,0.0,0.0,91,0.00,,,0.00,0.00,VWS V14.01,2013-09-25 08:30:00,
2013-09-25 04:40:00,44.1,41.7,29.89,SW,225,0.0,0.0,91,0.00,,,0.00,0.00,VWS V14.01,2013-09-25 08:40:00,
2013-09-25 04:50:00,43.9,41.7,29.88,SW,225,0.0,0.0,92,0.00,,,0.00,0.00,VWS V14.01,2013-09-25 08:50:00,
2013-09-25 05:00:00,43.8,41.6,29.88,SW,225,0.0,0.0,92,0.00,,,0.00,0.00,VWS V14.01,2013-09-25 09:00:00,
2013-09-25 05:10:00,43.7,41.5,29.88,SW,225,0.0,0.0,92,0.00,,,0.00,0.00,VWS V14.01,2013-09-25 09:10:00,
2013-09-25 05:20:00,43.6,41.4,29.89,SW,225,0.0,0.0,92,0.00,,,0.00,0.00,VWS V14.01,2013-09-25 09:20:00,
2013-09-25 05:30:00,43.3,41.1,29.88,SW,225,0.0,0.0,92,0.00,,,0.00,0.00,VWS V14.01,2013-09-25 09:30:00,
2013-09-25 05:40:00,43.2,41.0,29.88,SW,225,0.0,0.0,92,0.00,,,0.00,0.00,VWS V14.01,2013-09-25 09:40:00,
2013-09-25 05:50:00,43.1,40.9,29.88,SW,225,0.0,0.0,92,0.00,,,0.00,0.00,VWS V14.01,2013-09-25 09:50:00,
2013-09-25 06:00:00,42.9,40.7,29.88,SW,225,0.0,0.0,92,0.00,,,0.00,0.00,VWS V14.01,2013-09-25 10:00:00,
2013-09-25 06:10:00,42.9,40.7,29.88,SW,225,0.0,0.0,92,0.00,,,0.00,0.00,VWS V14.01,2013-09-25 10:10:00,
2013-09-25 06:20:00,42.9,40.7,29.89,SW,225,0.0,0.0,92,0.00,,,0.00,0.00,VWS V14.01,2013-09-25 10:20:00,
2013-09-25 06:30:00,42.7,40.5,29.89,SW,225,0.0,0.0,92,0.00,,,0.00,0.00,VWS V14.01,2013-09-25 10:30:00,
2013-09-25 06:40:00,42.6,40.4,29.89,SW,225,0.0,0.0,92,0.00,,,0.00,0.00,VWS V14.01,2013-09-25 10:40:00,
2013-09-25 06:50:00,42.5,40.3,29.89,SW,225,0.0,0.0,92,0.00,,,0.00,0.00,VWS V14.01,2013-09-25 10:50:00,
2013-09-25 07:00:00,42.6,40.4,29.89,SW,225,0.0,0.0,92,0.00,,,0.00,0.00,VWS V14.01,2013-09-25 11:00:00,
2013-09-25 07:10:00,42.5,40.3,29.89,SW,225,0.0,0.0,92,0.00,,,0.00,0.00,VWS V14.01,2013-09-25 11:10:00,
2013-09-25 07:20:00,42.4,40.2,29.89,SW,225,0.0,0.0,92,0.00,,,0.00,0.00,VWS V14.01,2013-09-25 11:20:00,
2013-09-25 07:30:00,42.3,40.2,29.89,SW,225,0.0,0.0,92,0.00,,,0.00,0.00,VWS V14.01,2013-09-25 11:30:00,
2013-09-25 07:40:00,42.2,40.0,29.89,SW,225,0.0,0.0,92,0.00,,,0.00,3.00,VWS V14.01,2013-09-25 11:40:00,
2013-09-25 07:50:00,42.3,40.4,29.90,SW,225,0.0,0.0,93,0.00,,,0.00,6.00,VWS V14.01,2013-09-25 11:50:00,
2013-09-25 08:00:00,42.4,40.5,29.90,SW,225,0.0,0.0,93,0.00,,,0.00,9.00,VWS V14.01,2013-09-25 12:00:00,
2013-09-25 08:10:00,42.6,40.7,29.90,SW,225,0.0,0.0,93,0.00,,,0.00,24.00,VWS V14.01,2013-09-25 12:10:00,
2013-09-25 08:20:00,42.7,40.8,29.90,SW,225,0.0,0.0,93,0.00,,,0.00,42.00,VWS V14.01,2013-09-25 12:20:00,
2013-09-25 08:30:00,43.2,41.3,29.91,SW,225,0.0,0.0,93,0.00,,,0.00,59.00,VWS V14.01,2013-09-25 12:30:00,
2013-09-25 08:40:00,44.5,42.9,29.91,SW,225,0.0,0.0,94,0.00,,,0.00,133.00,VWS V14.01,2013-09-25 12:40:00,
2013-09-25 08:50:00,45.8,44.2,29.90,SW,225,0.0,0.0,94,0.00,,,0.00,70.00,VWS V14.01,2013-09-25 12:50:00,
2013-09-25 09:00:00,46.9,45.3,29.90,SW,225,0.0,0.0,94,0.00,,,0.00,143.00,VWS V14.01,2013-09-25 13:00:00,
2013-09-25 09:10:00,48.5,47.1,29.90,SW,225,0.0,0.0,95,0.00,,,0.00,265.00,VWS V14.01,2013-09-25 13:10:00,
2013-09-25 09:20:00,50.7,49.6,29.90,South,180,0.0,1.0,96,0.00,,,0.00,305.00,VWS V14.01,2013-09-25 13:20:00,
2013-09-25 09:30:00,53.3,52.2,29.90,South,180,0.0,3.0,96,0.00,,,0.00,315.00,VWS V14.01,2013-09-25 13:30:00,
2013-09-25 09:40:00,54.1,52.4,29.90,SE,135,0.0,2.0,94,0.00,,,0.00,210.00,VWS V14.01,2013-09-25 13:40:00,
2013-09-25 09:50:00,54.5,52.8,29.90,SSE,158,0.0,2.0,94,0.00,,,0.00,267.00,VWS V14.01,2013-09-25 13:50:00,
2013-09-25 10:00:00,55.3,53.0,29.90,SSE,158,0.0,1.0,92,0.00,,,0.00,84.00,VWS V14.01,2013-09-25 14:00:00,
2013-09-25 10:10:00,55.5,52.9,29.90,SSE,158,0.0,0.0,91,0.00,,,0.00,92.00,VWS V14.01,2013-09-25 14:10:00,
2013-09-25 10:20:00,55.8,53.2,29.91,SSE,158,0.0,0.0,91,0.00,,,0.00,128.00,VWS V14.01,2013-09-25 14:20:00,
2013-09-25 10:30:00,56.2,53.0,29.91,SSE,158,0.0,1.0,89,0.00,,,0.00,282.00,VWS V14.01,2013-09-25 14:30:00,
2013-09-25 10:40:00,56.9,50.8,29.91,SE,135,0.0,3.0,80,0.00,,,0.00,614.00,VWS V14.01,2013-09-25 14:40:00,
2013-09-25 10:50:00,58.9,49.9,29.91,SSE,158,0.0,2.0,72,0.00,,,0.00,408.00,VWS V14.01,2013-09-25 14:50:00,
2013-09-25 11:00:00,60.9,50.3,29.91,SE,135,0.0,3.0,68,0.00,,,0.00,179.00,VWS V14.01,2013-09-25 15:00:00,
2013-09-25 11:10:00,62.2,51.5,29.91,SE,135,0.0,1.0,68,0.00,,,0.00,140.00,VWS V14.01,2013-09-25 15:10:00,
2013-09-25 11:20:00,62.6,50.3,29.91,SSE,158,0.0,3.0,64,0.00,,,0.00,138.00,VWS V14.01,2013-09-25 15:20:00,
2013-09-25 11:30:00,62.8,51.7,29.91,SSE,158,0.0,0.0,67,0.00,,,0.00,156.00,VWS V14.01,2013-09-25 15:30:00,
2013-09-25 11:40:00,63.2,52.9,29.91,SSE,158,0.0,0.0,69,0.00,,,0.00,298.00,VWS V14.01,2013-09-25 15:40:00,
2013-09-25 11:50:00,63.8,51.4,29.91,SSE,158,0.0,1.0,64,0.00,,,0.00,850.00,VWS V14.01,2013-09-25 15:50:00,
2013-09-25 12:00:00,65.3,51.1,29.90,NE,45,0.0,3.0,60,0.00,,,0.00,846.00,VWS V14.01,2013-09-25 16:00:00,
2013-09-25 12:10:00,66.8,50.1,29.90,WSW,248,0.0,2.0,55,0.00,,,0.00,794.00,VWS V14.01,2013-09-25 16:10:00,
2013-09-25 12:20:00,67.8,51.1,29.89,South,180,0.0,1.0,55,0.00,,,0.00,755.00,VWS V14.01,2013-09-25 16:20:00,
2013-09-25 12:30:00,68.5,51.7,29.89,West,270,0.0,2.0,55,0.00,,,0.00,283.00,VWS V14.01,2013-09-25 16:30:00,
2013-09-25 12:40:00,68.9,52.6,29.89,SW,225,0.0,2.0,56,0.00,,,0.00,123.00,VWS V14.01,2013-09-25 16:40:00,
2013-09-25 12:50:00,68.8,52.0,29.89,West,270,0.0,3.0,55,0.00,,,0.00,100.00,VWS V14.01,2013-09-25 16:50:00,
2013-09-25 13:00:00,67.6,53.2,29.89,West,270,1.0,5.0,60,0.00,,,0.00,65.00,VWS V14.01,2013-09-25 17:00:00,
2013-09-25 13:10:00,67.2,52.9,29.89,NNW,338,0.0,3.0,60,0.00,,,0.00,70.00,VWS V14.01,2013-09-25 17:10:00,
2013-09-25 13:20:00,67.0,53.6,29.89,West,270,1.0,6.0,62,0.00,,,0.00,81.00,VWS V14.01,2013-09-25 17:20:00,
2013-09-25 13:30:00,66.4,53.9,29.88,West,270,0.0,4.0,64,0.00,,,0.00,61.00,VWS V14.01,2013-09-25 17:30:00,
2013-09-25 13:40:00,66.5,54.0,29.88,WNW,292,0.0,2.0,64,0.00,,,0.00,53.00,VWS V14.01,2013-09-25 17:40:00,
2013-09-25 13:50:00,66.9,54.8,29.88,West,270,0.0,1.0,65,0.00,,,0.00,94.00,VWS V14.01,2013-09-25 17:50:00,
2013-09-25 14:00:00,66.9,53.5,29.87,West,270,1.0,6.0,62,0.00,,,0.00,71.00,VWS V14.01,2013-09-25 18:00:00,
2013-09-25 14:10:00,67.1,54.1,29.87,West,270,1.0,3.0,63,0.00,,,0.00,54.00,VWS V14.01,2013-09-25 18:10:00,
2013-09-25 14:20:00,67.5,54.0,29.86,NW,315,0.0,2.0,62,0.00,,,0.00,64.00,VWS V14.01,2013-09-25 18:20:00,
2013-09-25 14:30:00,67.9,54.4,29.86,West,270,0.0,3.0,62,0.00,,,0.00,68.00,VWS V14.01,2013-09-25 18:30:00,
2013-09-25 14:40:00,68.4,54.4,29.86,WNW,292,1.0,5.0,61,0.00,,,0.00,126.00,VWS V14.01,2013-09-25 18:40:00,
2013-09-25 14:50:00,68.7,54.3,29.86,West,270,0.0,2.0,60,0.00,,,0.00,588.00,VWS V14.01,2013-09-25 18:50:00,
2013-09-25 15:00:00,69.2,56.1,29.85,South,180,0.0,1.0,63,0.00,,,0.00,193.00,VWS V14.01,2013-09-25 19:00:00,
2013-09-25 15:10:00,69.9,56.3,29.85,SSW,202,0.0,3.0,62,0.00,,,0.00,63.00,VWS V14.01,2013-09-25 19:10:00,
2013-09-25 15:20:00,70.2,56.6,29.85,South,180,0.0,2.0,62,0.00,,,0.00,73.00,VWS V14.01,2013-09-25 19:20:00,
2013-09-25 15:30:00,70.8,56.2,29.84,WSW,248,0.0,3.0,60,0.00,,,0.00,72.00,VWS V14.01,2013-09-25 19:30:00,
2013-09-25 15:40:00,71.1,56.5,29.84,SE,135,0.0,3.0,60,0.00,,,0.00,106.00,VWS V14.01,2013-09-25 19:40:00,
2013-09-25 15:50:00,71.3,56.2,29.84,SSE,158,0.0,6.0,59,0.00,,,0.00,556.00,VWS V14.01,2013-09-25 19:50:00,
2013-09-25 16:00:00,71.3,56.2,29.84,SE,135,0.0,5.0,59,0.00,,,0.00,548.00,VWS V14.01,2013-09-25 20:00:00,
2013-09-25 16:10:00,71.5,56.4,29.84,SE,135,0.0,6.0,59,0.00,,,0.00,525.00,VWS V14.01,2013-09-25 20:10:00,
2013-09-25 16:20:00,71.0,56.4,29.84,South,180,0.0,2.0,60,0.00,,,0.00,474.00,VWS V14.01,2013-09-25 20:20:00,
2013-09-25 16:30:00,70.8,55.8,29.84,SSE,158,0.0,6.0,59,0.00,,,0.00,227.00,VWS V14.01,2013-09-25 20:30:00,
2013-09-25 16:40:00,70.9,55.4,29.84,SSE,158,0.0,1.0,58,0.00,,,0.00,84.00,VWS V14.01,2013-09-25 20:40:00,
2013-09-25 16:50:00,70.3,55.3,29.84,SSW,202,0.0,4.0,59,0.00,,,0.00,90.00,VWS V14.01,2013-09-25 20:50:00,
2013-09-25 17:00:00,69.4,55.4,29.84,SSW,202,0.0,5.0,61,0.00,,,0.00,91.00,VWS V14.01,2013-09-25 21:00:00,
2013-09-25 17:10:00,68.6,56.0,29.84,SSW,202,0.0,2.0,64,0.00,,,0.00,92.00,VWS V14.01,2013-09-25 21:10:00,
2013-09-25 17:20:00,67.9,56.1,29.85,SW,225,0.0,3.0,66,0.00,,,0.00,90.00,VWS V14.01,2013-09-25 21:20:00,
2013-09-25 17:30:00,67.3,56.0,29.85,South,180,0.0,3.0,67,0.00,,,0.00,84.00,VWS V14.01,2013-09-25 21:30:00,
2013-09-25 17:40:00,66.9,55.6,29.85,West,270,0.0,3.0,67,0.00,,,0.00,83.00,VWS V14.01,2013-09-25 21:40:00,
2013-09-25 17:50:00,66.5,55.6,29.85,South,180,0.0,2.0,68,0.00,,,0.00,76.00,VWS V14.01,2013-09-25 21:50:00,
2013-09-25 18:00:00,66.3,55.0,29.86,SE,135,0.0,5.0,67,0.00,,,0.00,69.00,VWS V14.01,2013-09-25 22:00:00,
2013-09-25 18:10:00,66.0,55.2,29.86,NE,45,0.0,2.0,68,0.00,,,0.00,62.00,VWS V14.01,2013-09-25 22:10:00,
2013-09-25 18:20:00,65.7,55.7,29.86,NE,45,0.0,0.0,70,0.00,,,0.00,57.00,VWS V14.01,2013-09-25 22:20:00,
2013-09-25 18:30:00,65.5,55.1,29.86,SSE,158,0.0,1.0,69,0.00,,,0.00,51.00,VWS V14.01,2013-09-25 22:30:00,
2013-09-25 18:40:00,65.2,55.2,29.86,SSE,158,0.0,0.0,70,0.00,,,0.00,43.00,VWS V14.01,2013-09-25 22:40:00,
2013-09-25 18:50:00,64.9,55.3,29.86,SSE,158,0.0,1.0,71,0.00,,,0.00,34.00,VWS V14.01,2013-09-25 22:50:00,
2013-09-25 19:00:00,64.5,55.3,29.86,SSE,158,0.0,1.0,72,0.00,,,0.00,24.00,VWS V14.01,2013-09-25 23:00:00,
2013-09-25 19:10:00,63.9,54.7,29.86,SSW,202,0.0,1.0,72,0.00,,,0.00,13.00,VWS V14.01,2013-09-25 23:10:00,
2013-09-25 19:20:00,63.5,54.7,29.87,SSW,202,0.0,1.0,73,0.00,,,0.00,3.00,VWS V14.01,2013-09-25 23:20:00,
2013-09-25 19:30:00,63.2,54.8,29.87,SSW,202,0.0,1.0,74,0.00,,,0.00,0.00,VWS V14.01,2013-09-25 23:30:00,
2013-09-25 19:40:00,62.8,54.4,29.87,SSW,202,0.0,0.0,74,0.00,,,0.00,0.00,VWS V14.01,2013-09-25 23:40:00,
2013-09-25 20:00:00,61.8,53.4,29.88,SSW,202,0.0,0.0,74,0.00,,,0.00,0.00,VWS V14.01,2013-09-26 00:00:00,
2013-09-25 20:10:00,61.2,52.9,29.88,SSW,202,0.0,0.0,74,0.00,,,0.00,0.00,VWS V14.01,2013-09-26 00:10:00,
2013-09-25 20:20:00,60.8,52.8,29.87,SSW,202,0.0,0.0,75,0.00,,,0.00,0.00,VWS V14.01,2013-09-26 00:20:00,
2013-09-25 20:30:00,60.4,52.5,29.88,SSW,202,0.0,0.0,75,0.00,,,0.00,0.00,VWS V14.01,2013-09-26 00:30:00,
2013-09-25 20:40:00,60.0,51.7,29.88,SSW,202,0.0,0.0,74,0.00,,,0.00,0.00,VWS V14.01,2013-09-26 00:40:00,
2013-09-25 20:50:00,59.8,51.5,29.88,SSW,202,0.0,0.0,74,0.00,,,0.00,0.00,VWS V14.01,2013-09-26 00:50:00,
2013-09-25 21:00:00,59.5,51.6,29.88,SSW,202,0.0,0.0,75,0.00,,,0.00,0.00,VWS V14.01,2013-09-26 01:00:00,
2013-09-25 21:10:00,59.2,51.7,29.88,SSW,202,0.0,0.0,76,0.00,,,0.00,0.00,VWS V14.01,2013-09-26 01:10:00,
2013-09-25 21:20:00,58.8,51.3,29.88,SSW,202,0.0,0.0,76,0.00,,,0.00,0.00,VWS V14.01,2013-09-26 01:20:00,
2013-09-25 21:30:00,58.4,50.9,29.88,SSW,202,0.0,0.0,76,0.00,,,0.00,0.00,VWS V14.01,2013-09-26 01:30:00,
2013-09-25 21:40:00,58.0,50.5,29.88,SSW,202,0.0,0.0,76,0.00,,,0.00,0.00,VWS V14.01,2013-09-26 01:40:00,
2013-09-25 21:57:00,58.0,50.5,29.88,SSW,202,0.0,0.0,76,0.00,,,0.00,0.00,VWS V14.01,2013-09-26 01:57:00,
2013-09-25 22:02:00,57.0,49.2,29.88,SSW,192,0.0,0.0,75,0.00,,BKN250,0.00,0.00,VWS V14.01,2013-09-26 02:02:00,
2013-09-25 22:07:00,56.9,49.4,29.88,SSE,157,0.0,5.0,76,0.00,,BKN250,0.00,0.00,VWS V14.01,2013-09-26 02:07:00,
2013-09-25 22:12:00,56.9,49.4,29.88,South,184,0.0,0.0,76,0.00,,BKN250,0.00,0.00,VWS V14.01,2013-09-26 02:12:00,
2013-09-25 22:17:00,56.9,49.4,29.88,South,184,0.0,1.0,76,0.00,,BKN250,0.00,0.00,VWS V14.01,2013-09-26 02:17:00,
2013-09-25 22:23:00,56.9,49.4,29.88,South,174,0.0,0.0,76,0.00,,BKN250,0.00,0.00,VWS V14.01,2013-09-26 02:23:00,
2013-09-25 22:28:00,56.9,49.4,29.88,South,174,0.0,0.0,76,0.00,,BKN250,0.00,0.00,VWS V14.01,2013-09-26 02:28:00,
2013-09-25 22:32:00,56.7,49.2,29.88,South,174,0.0,0.0,76,0.00,,BKN250,0.00,0.00,VWS V14.01,2013-09-26 02:32:00,
2013-09-25 22:37:00,56.6,49.1,29.88,South,174,0.0,0.0,76,0.00,,BKN250,0.00,0.00,VWS V14.01,2013-09-26 02:37:00,
2013-09-25 22:42:00,56.5,49.0,29.88,South,174,0.0,0.0,76,0.00,,BKN250,0.00,0.00,VWS V14.01,2013-09-26 02:42:00,
2013-09-25 22:47:00,56.2,48.8,29.88,South,174,0.0,0.0,76,0.00,,BKN250,0.00,0.00,VWS V14.01,2013-09-26 02:47:00,
2013-09-25 22:52:00,55.9,48.5,29.88,South,174,0.0,0.0,76,0.00,,BKN250,0.00,0.00,VWS V14.01,2013-09-26 02:52:00,
2013-09-25 22:57:00,55.7,48.3,29.88,South,174,0.0,0.0,76,0.00,,BKN250,0.00,0.00,VWS V14.01,2013-09-26 02:57:00,
2013-09-25 23:02:00,55.4,48.3,29.89,South,174,0.0,0.0,77,0.00,,BKN250,0.00,0.00,VWS V14.01,2013-09-26 03:02:00,
2013-09-25 23:07:00,55.3,48.6,29.89,South,174,0.0,0.0,78,0.00,,BKN250,0.00,0.00,VWS V14.01,2013-09-26 03:07:00,
2013-09-25 23:12:00,55.1,48.4,29.89,South,174,0.0,0.0,78,0.00,,BKN250,0.00,0.00,VWS V14.01,2013-09-26 03:12:00,
2013-09-25 23:17:00,54.8,48.1,29.89,South,174,0.0,0.0,78,0.00,,BKN250,0.00,0.00,VWS V14.01,2013-09-26 03:17:00,
2013-09-25 23:22:00,54.7,48.0,29.89,South,174,0.0,0.0,78,0.00,,BKN250,0.00,0.00,VWS V14.01,2013-09-26 03:22:00,
2013-09-25 23:27:00,54.5,47.8,29.89,South,174,0.0,0.0,78,0.00,,BKN250,0.00,0.00,VWS V14.01,2013-09-26 03:27:00,
2013-09-25 23:32:00,54.4,47.7,29.89,South,174,0.0,0.0,78,0.00,,BKN250,0.00,0.00,VWS V14.01,2013-09-26 03:32:00,
2013-09-25 23:37:00,54.2,47.5,29.89,South,174,0.0,0.0,78,0.00,,BKN250,0.00,0.00,VWS V14.01,2013-09-26 03:37:00,
2013-09-25 23:43:00,54.1,47.4,29.89,South,174,0.0,0.0,78,0.00,,BKN250,0.00,0.00,VWS V14.01,2013-09-26 03:43:00,
2013-09-25 23:48:00,53.9,47.2,29.89,South,174,0.0,0.0,78,0.00,,BKN250,0.00,0.00,VWS V14.01,2013-09-26 03:48:00,
2013-09-25 23:53:00,53.6,46.9,29.89,South,174,0.0,0.0,78,0.00,,BKN250,0.00,0.00,VWS V14.01,2013-09-26 03:53:00,
2013-09-25 23:58:00,53.5,46.8,29.89,South,174,0.0,0.0,78,0.00,,BKN250,0.00,0.00,VWS V14.01,2013-09-26 03:58:00,